This demonstration page uses our WeatherBlox Daily Observations layout. Learn more.

Left ArrowRight Arrow

38.89511, -77.03637

Hourly Observations for December 8, 2022

Temp ( °F °C ) Dew Point ( °F °C ) Humidity (%) Winds ( mph kmh ) Pressure ( in mb ) Visibility ( mi km ) Precip ( " mm )
12:07 am 00:07 Mostly Clear with Fog 52 11.1 51 10.6 97 97 NNW 8 13 30.20 1023 0 0 0.00 0.00
12:49 am 00:49 Mostly Clear with Fog 52 11 52 11 100 100 NNW 6 9 30.20 1023 0 0 0.00 0.00
12:52 am 00:52 Mostly Clear with Fog 52 11.1 52 11.1 100 100 N 6 9 30.20 1023 0 0 0.00 0.00
1:08 am 01:08 Mostly Cloudy with Fog 52 11.1 51 10.6 97 97 N 5 7 30.21 1023 1 1 0.00 0.00
1:22 am 01:22 Mostly Cloudy with Fog 51 10.6 51 10.6 100 100 N 5 7 30.20 1023 0 0 0.00 0.00
1:43 am 01:43 Partly Cloudy with Fog 49 9.4 49 9.4 100 100 N 7 11 30.21 1023 1 2 0.00 0.00
1:52 am 01:52 Mostly Cloudy with Patchy Fog 49 9.4 48 8.9 97 97 NNW 6 9 30.21 1023 1 2 0.00 0.00
1:55 am 01:55 Mostly Cloudy with Patchy Fog 48 8.9 48 8.9 100 100 N 3 6 30.21 1023 3 5 0.00 0.00
2:52 am 02:52 Mostly Cloudy with Patchy Fog 47 8.3 46 7.8 97 97 NNE 5 7 30.22 1023 4 6 0.00 0.00
3:05 am 03:05 Mostly Cloudy with Patchy Fog 47 8.3 46 7.8 97 97 NNE 3 6 30.23 1024 4 6 0.00 0.00
3:24 am 03:24 Mostly Cloudy with Fog 47 8.3 46 7.8 97 97 ENE 3 6 30.23 1024 5 8 0.00 0.00
3:52 am 03:52 Mostly Cloudy with Fog 44 6.7 44 6.7 100 100 NNW 7 11 30.23 1024 8 13 0.00 0.00
4:52 am 04:52 Mostly Cloudy 45 7.2 44 6.7 97 97 Calm 30.23 1024 8 13 0.00 0.00
5:52 am 05:52 Cloudy 45 7.2 45 7.2 100 100 SE 3 6 30.24 1024 7 11 0.00 0.00
6:52 am 06:52 Mostly Cloudy 47 8.3 45 7.2 93 93 ESE 3 6 30.27 1025 10 16 0.00 0.00
7:52 am 07:52 Mostly Cloudy 49 9.4 46 7.8 90 90 NNW 7 11 30.27 1025 10 16 0.00 0.00
8:52 am 08:52 Partly Cloudy 53 11.7 46 7.8 77 77 NNW 9 15 30.28 1026 10 16 0.00 0.00
9:52 am 09:52 Partly Cloudy 56 13.3 46 7.8 69 69 N 8 13 30.30 1026 10 16 0.00 0.00
10:52 am 10:52 Mostly Cloudy 56 13.3 44 6.7 64 64 N 9 15 30.31 1026 10 16 0.00 0.00
11:52 am 11:52 Mostly Cloudy 59 15 44 6.7 58 58 N 9 15 30.28 1025 10 16 0.00 0.00
12:52 pm 12:52 Cloudy 57 13.9 43 6.1 59 59 N 8 13 30.27 1025 10 16 0.00 0.00
1:52 pm 13:52 Cloudy 57 13.9 42 5.6 57 57 NNW 6 9 30.25 1024 10 16 0.00 0.00
2:52 pm 14:52 Cloudy 57 13.9 40 4.4 53 53 N 6 9 30.23 1024 10 16 0.00 0.00
3:52 pm 15:52 Cloudy 55 12.8 40 4.4 57 57 N 10 17 30.24 1024 10 16 0.00 0.00
4:52 pm 16:52 Cloudy 52 11.1 39 3.9 61 61 N 9 15 30.25 1024 10 16 0.00 0.00
5:52 pm 17:52 Cloudy 52 11.1 39 3.9 61 61 N 8 13 30.24 1024 10 16 0.00 0.00
6:52 pm 18:52 Cloudy 52 11.1 38 3.3 59 59 N 9 15 30.26 1025 10 16 0.00 0.00
7:52 pm 19:52 Cloudy 51 10.6 39 3.9 63 63 NNE 13 20 30.27 1025 10 16 0.00 0.00
8:52 pm 20:52 Cloudy 50 10 37 2.8 61 61 NNE 9 15 30.27 1025 10 16 0.00 0.00
9:52 pm 21:52 Cloudy 50 10 36 2.2 58 58 NNE 10 17 30.29 1026 10 16 0.01 0.13
10:52 pm 22:52 Cloudy 49 9.4 35 1.7 59 59 NNE 10 17 30.28 1025 10 16 0.01 0.13
11:52 pm 23:52 Cloudy 49 9.4 34 1.1 56 56 NNE 10 17 30.27 1025 10 16 0.00 0.00

Powered by AerisWeather